Powrót do katalogu

ATLAS 5 CENTAUR DEB

LostHEO
NORAD 46662·DEBRIS·🇺🇸 United States

Wystrzelony Oct 17, 2018 z Cape Canaveral Space Force Station

Loading…

Następne Przeloty (najbliższe 24 godziny)

TLE

NieaktualneSource: Space-Track

Epoka: Feb 23, 2021, 19:04 UTC

1 46662U 18079CQ  21054.79459369 -.00000106  00000-0  00000+0 0  9990
2 46662  10.3989 209.8041 4787921   2.2377 359.1516  1.94241116  2684

Śledź ATLAS 5 CENTAUR DEB w czasie rzeczywistym z AllMySat

Download on the App Store